TimeCST,TemperatureF,Dew PointF,Humidity,Sea Level PressureIn,VisibilityMPH,Wind Direction,Wind SpeedMPH,Gust SpeedMPH,PrecipitationIn,Events,Conditions,WindDirDegrees,DateUTC
12:15 AM,51.1,47.7,88,29.75,3.0,SSE,5.8,-,N/A,,Overcast,150,2013-12-04 06:15:00
12:35 AM,50.9,47.3,87,29.74,4.0,SSE,4.6,-,N/A,,Mostly Cloudy,150,2013-12-04 06:35:00
12:55 AM,50.5,47.3,89,29.75,4.0,SE,4.6,-,N/A,,Mostly Cloudy,140,2013-12-04 06:55:00
1:15 AM,49.6,46.6,89,29.75,3.0,SSE,5.8,-,N/A,,Mostly Cloudy,150,2013-12-04 07:15:00
1:35 AM,49.6,46.8,90,29.76,3.0,SSE,8.1,-,N/A,,Overcast,160,2013-12-04 07:35:00
1:55 AM,49.6,46.6,89,29.77,3.0,South,5.8,-,N/A,,Overcast,170,2013-12-04 07:55:00
2:15 AM,49.3,46.2,89,29.76,3.0,SSE,5.8,-,N/A,,Mostly Cloudy,150,2013-12-04 08:15:00
2:35 AM,48.7,45.9,90,29.76,3.0,SSE,5.8,-,N/A,,Scattered Clouds,150,2013-12-04 08:35:00
2:55 AM,48.7,46.0,90,29.76,3.0,SSE,5.8,-,N/A,,Mostly Cloudy,160,2013-12-04 08:55:00
3:15 AM,48.7,45.9,90,29.75,3.0,SSE,5.8,-,N/A,,Overcast,160,2013-12-04 09:15:00
3:35 AM,48.6,45.7,90,29.75,3.0,SSE,6.9,-,N/A,,Overcast,150,2013-12-04 09:35:00
4:45 AM,48.2,44.6,87,29.75,2.5,SE,5.8,-,N/A,,Scattered Clouds,140,2013-12-04 10:45:00
5:45 AM,48.2,44.6,87,29.75,2.5,SE,6.9,-,N/A,,Overcast,140,2013-12-04 11:45:00
6:45 AM,48.2,46.4,93,29.74,2.0,SE,8.1,-,N/A,,Overcast,140,2013-12-04 12:45:00
7:31 AM,48.2,46.4,93,29.73,1.5,SE,8.1,-,N/A,,Overcast,140,2013-12-04 13:31:00
7:45 AM,48.2,46.4,93,-9999,1.5,North,-9999.0,-,N/A,,Overcast,0,2013-12-04 13:45:00
8:45 AM,48.2,46.4,93,29.72,1.5,SE,11.5,-,N/A,,Overcast,140,2013-12-04 14:45:00
9:45 AM,50.0,48.2,94,29.72,2.0,SSE,11.5,-,N/A,,Overcast,150,2013-12-04 15:45:00
10:45 AM,51.8,50.0,94,29.68,2.0,SSE,11.5,-,N/A,,Overcast,150,2013-12-04 16:45:00
11:45 AM,53.6,50.0,88,29.65,2.0,SSE,13.8,-,N/A,,Overcast,150,2013-12-04 17:45:00
12:45 PM,55.4,50.0,82,29.61,3.0,SE,11.5,-,N/A,,Overcast,130,2013-12-04 18:45:00
1:45 PM,55.4,51.8,88,29.57,3.0,South,9.2,24.2,N/A,,Overcast,190,2013-12-04 19:45:00
2:45 PM,55.4,53.6,94,29.56,2.0,SSE,11.5,23.0,N/A,,Overcast,150,2013-12-04 20:45:00
3:45 PM,55.4,53.6,94,-9999,2.0,SSE,11.5,23.0,N/A,,Overcast,160,2013-12-04 21:45:00
4:45 PM,57.2,53.6,88,29.56,4.0,South,9.2,-,N/A,,Overcast,170,2013-12-04 22:45:00
5:45 PM,59.0,53.6,82,29.55,-9999.0,South,8.1,-,N/A,,Overcast,180,2013-12-04 23:45:00
6:45 PM,59.0,53.6,82,29.57,-9999.0,SSW,11.5,28.8,N/A,,Overcast,210,2013-12-05 00:45:00
7:45 PM,59.0,53.6,82,29.58,-9999.0,SW,11.5,17.3,N/A,,Overcast,220,2013-12-05 01:45:00
8:15 PM,58.6,52.7,81,29.58,7.0,SW,6.9,-,N/A,,Overcast,220,2013-12-05 02:15:00
8:35 PM,58.3,52.7,82,29.58,7.0,SSW,5.8,-,N/A,,Overcast,210,2013-12-05 02:35:00
8:45 PM,57.2,51.8,82,29.59,-9999.0,SSW,11.5,17.3,N/A,,Overcast,210,2013-12-05 02:45:00
8:55 PM,58.1,52.5,82,29.59,7.0,SSW,9.2,-,N/A,,Mostly Cloudy,210,2013-12-05 02:55:00
9:15 PM,57.7,52.2,82,29.59,7.0,SW,5.8,-,N/A,,Mostly Cloudy,220,2013-12-05 03:15:00
9:35 PM,57.4,52.2,83,29.60,7.0,SSW,6.9,-,N/A,,Mostly Cloudy,210,2013-12-05 03:35:00
9:45 PM,57.2,51.8,82,-9999,-9999.0,SW,11.5,20.7,N/A,,Mostly Cloudy,220,2013-12-05 03:45:00
9:55 PM,57.2,51.4,81,29.60,7.0,SW,10.4,16.1,N/A,,Scattered Clouds,230,2013-12-05 03:55:00
10:15 PM,56.7,50.9,81,29.61,7.0,SW,10.4,-,N/A,,Mostly Cloudy,230,2013-12-05 04:15:00
10:35 PM,52.0,46.0,80,29.62,7.0,West,13.8,28.8,N/A,,Overcast,260,2013-12-05 04:35:00
10:55 PM,50.0,44.4,81,29.65,10.0,WSW,15.0,20.7,N/A,,Overcast,250,2013-12-05 04:55:00
11:15 PM,49.1,40.6,73,29.66,10.0,WSW,15.0,26.5,N/A,,Overcast,250,2013-12-05 05:15:00
11:35 PM,47.5,37.8,69,29.68,10.0,WSW,20.7,32.2,N/A,,Overcast,250,2013-12-05 05:35:00
11:55 PM,46.2,36.9,70,29.69,10.0,WSW,19.6,26.5,N/A,,Overcast,250,2013-12-05 05:55:00